"2009-04-09 00:00:00",783693,4.955,306.9,2.453,0.323,16.06,106.759,16.58,17.52,12.89,0,110.5,13.29,17.39,268.9
"2009-04-09 00:00:30",783694,4.7,313.3,2.299,0.181,15.91,106.7578,16.57,17.54,12.89,0,110.5,13.29,17.38,275.3
"2009-04-09 00:01:00",783695,4.336,312.4,1.425,0.218,15.96,106.7587,16.58,17.54,12.93,0,110.5,13.29,17.39,274.4
"2009-04-09 00:01:30",783696,4.781,317,1.225,0.203,15.81,106.759,16.58,17.57,12.98,0,110.5,13.29,17.39,279.0
"2009-04-09 00:02:00",783697,4.988,317.1,2.403,0.232,15.82,106.759,16.58,17.55,13.15,0,110.5,13.29,17.39,279.1
"2009-04-09 00:02:30",783698,4.606,317.5,3.628,0.14,15.84,106.759,16.58,17.56,13.24,0,110.5,13.29,17.39,279.5
"2009-04-09 00:03:00",783699,4.896,321.6,2.845,0.229,15.91,106.759,16.58,17.57,13.48,0,110.5,13.29,17.39,283.6
"2009-04-09 00:03:30",783700,4.931,316.9,3.907,0.401,15.85,106.759,16.58,17.56,13.56,0,110.5,13.29,17.39,278.9
"2009-04-09 00:04:00",783701,4.746,312.1,1.495,0.356,15.86,106.7596,16.58,17.58,13.56,0,110.5,13.29,17.39,274.1
"2009-04-09 00:04:30",783702,5.095,315.6,2.7,0.204,15.99,106.7613,16.58,17.59,13.5,0,110.5,13.29,17.39,277.6
"2009-04-09 00:05:00",783703,4.718,317.1,2.064,0.293,15.97,106.7635,16.59,17.59,13.24,0,110.5,13.29,17.40,279.1
"2009-04-09 00:05:30",783704,5.267,317.1,3.675,0.135,15.94,106.7681,16.6,17.6,13.24,0,110.5,13.29,17.41,279.1
"2009-04-09 00:06:00",783705,4.915,317.8,2.18,0.181,15.94,106.7706,16.61,17.59,13.2,0,110.5,13.29,17.42,279.8
"2009-04-09 00:06:30",783706,4.843,314.7,1.092,0.149,15.76,106.7765,16.62,17.6,13.22,0,110.5,13.29,17.43,276.7
"2009-04-09 00:07:00",783707,4.369,309.9,3.05,0.237,15.91,106.7796,16.63,17.6,13.14,0,110.5,13.29,17.44,271.9
"2009-04-09 00:07:30",783708,4.454,313,1.597,0.149,15.8,106.7824,16.64,17.6,13.12,0,110.5,13.29,17.45,275.0
"2009-04-09 00:08:00",783709,4.218,313.2,2.277,0.206,15.97,106.7864,16.65,17.61,13.16,0,110.5,13.29,17.46,275.2
"2009-04-09 00:08:30",783710,4.204,312.7,2.125,0.126,15.88,106.7875,16.65,17.62,13.1,0,110.5,13.29,17.46,274.7
"2009-04-09 00:09:00",783711,4.191,306.8,2.231,0.343,16.03,106.7892,16.65,17.62,12.98,0,110.5,13.29,17.47,268.8
"2009-04-09 00:09:30",783712,3.872,302.6,1.481,0.282,15.91,106.7906,16.66,17.62,12.86,0,110.5,13.29,17.47,264.6
"2009-04-09 00:10:00",783713,4.11,303.3,1.308,0.098,16.13,106.79,16.66,17.64,12.72,0,110.5,13.29,17.47,265.3
"2009-04-09 00:10:30",783714,3.886,304,1.54,0.163,16.05,106.7909,16.66,17.62,12.7,0,110.5,13.29,17.47,266.0
"2009-04-09 00:11:00",783715,3.75,305.4,1.402,0.077,16.11,106.792,16.66,17.62,12.69,0,110.5,13.29,17.47,267.4
"2009-04-09 00:11:30",783716,3.857,307.1,2.815,0.17,16.06,106.7928,16.66,17.63,12.63,0,110.5,13.29,17.47,269.1
"2009-04-09 00:12:00",783717,4.051,312.3,1.385,0.079,15.96,106.7928,16.66,17.63,12.63,0,110.5,13.29,17.47,274.3
"2009-04-09 00:12:30",783718,4.124,313.4,1.999,0.157,15.94,106.7928,16.66,17.64,12.63,0,110.5,13.29,17.47,275.4
"2009-04-09 00:13:00",783719,3.87,314.8,2.338,0.187,15.93,106.7928,16.66,17.63,12.53,0,110.5,13.29,17.47,276.8
"2009-04-09 00:13:30",783720,3.31,307.3,5.797,0.189,16.02,106.7928,16.66,17.64,12.49,0,110.5,13.29,17.47,269.3
"2009-04-09 00:14:00",783721,3.763,310,2.417,0.227,15.88,106.7928,16.66,17.64,12.47,0,110.5,13.29,17.47,272.0
"2009-04-09 00:14:30",783722,4.306,314.1,3.288,0.148,15.86,106.7928,16.66,17.65,12.51,0,110.5,13.29,17.47,276.1
"2009-04-09 00:15:00",783723,4.28,311.8,1.186,0.171,15.84,106.7928,16.66,17.64,12.52,0,110.5,13.29,17.47,273.8
"2009-04-09 00:15:30",783724,4.47,314.7,1.206,0.078,15.92,106.7928,16.66,17.67,12.55,0,110.5,13.29,17.47,276.7
"2009-04-09 00:16:00",783725,5.007,313.5,1.62,0.299,15.99,106.7928,16.66,17.66,12.55,0,110.5,13.29,17.47,275.5
"2009-04-09 00:16:30",783726,5.209,313.8,1.198,0.129,15.87,106.7928,16.66,17.65,12.56,0,110.5,13.3,17.47,275.8
"2009-04-09 00:17:00",783727,5.219,313.5,1.321,0.19,15.86,106.7928,16.66,17.68,12.67,0,110.5,13.3,17.47,275.5
"2009-04-09 00:17:30",783728,5.204,315.5,1.27,0.091,15.8,106.7928,16.66,17.67,12.82,0,110.5,13.3,17.47,277.5
"2009-04-09 00:18:00",783729,5.227,318.2,1.54,0.124,15.8,106.7928,16.66,17.67,12.95,0,110.5,13.3,17.47,280.2
"2009-04-09 00:18:30",783730,5.311,318.5,1.737,0.254,15.79,106.7928,16.66,17.68,13,0,110.5,13.3,17.47,280.5
"2009-04-09 00:19:00",783731,5.708,316.3,0.782,0.098,15.84,106.7928,16.66,17.68,13,0,110.5,13.3,17.47,278.3
"2009-04-09 00:19:30",783732,5.772,317.6,1.564,0.17,15.85,106.7928,16.66,17.67,12.98,0,110.5,13.3,17.47,279.6
"2009-04-09 00:20:00",783733,5.56,319.1,1.748,0.179,15.84,106.7928,16.66,17.68,12.98,0,110.5,13.29,17.47,281.1
"2009-04-09 00:20:30",783734,5.558,316.3,1.505,0.162,15.84,106.7928,16.66,17.68,12.91,0,110.5,13.3,17.47,278.3
"2009-04-09 00:21:00",783735,5.801,314.3,1.001,0.139,15.85,106.7928,16.66,17.68,12.94,0,110.5,13.3,17.47,276.3
"2009-04-09 00:21:30",783736,5.844,317.1,2.24,0.11,15.71,106.7928,16.66,17.68,12.98,0,110.5,13.3,17.47,279.1
"2009-04-09 00:22:00",783737,6.035,318.8,2.169,0.463,15.71,106.7928,16.66,17.68,13.33,0,110.5,13.3,17.47,280.8
"2009-04-09 00:22:30",783738,6.717,318.3,1.646,0.244,15.8,106.7928,16.66,17.7,13.72,0,110.5,13.3,17.47,280.3
"2009-04-09 00:23:00",783739,6.742,319.9,1.799,0.24,15.81,106.7928,16.66,17.69,13.85,0,110.5,13.3,17.47,281.9
"2009-04-09 00:23:30",783740,6.245,323.2,1.954,0.246,15.83,106.7928,16.66,17.69,13.87,0,110.5,13.3,17.47,285.2
"2009-04-09 00:24:00",783741,6.261,321.8,0.973,0.146,15.87,106.7928,16.66,17.7,13.9,0,110.5,13.3,17.47,283.8
"2009-04-09 00:24:30",783742,5.942,320.2,1.699,0.132,15.85,106.7928,16.66,17.69,13.97,0,110.5,13.3,17.47,282.2
"2009-04-09 00:25:00",783743,5.462,320.1,1.124,0.179,15.81,106.7928,16.66,17.69,13.97,0,110.5,13.3,17.47,282.1
"2009-04-09 00:25:30",783744,5.241,322.4,2.727,0.136,15.89,106.79,16.66,17.68,13.79,0,110.5,13.3,17.47,284.4
"2009-04-09 00:26:00",783745,5.022,322.3,1.38,0.118,15.92,106.7776,16.63,17.69,13.74,0,110.5,13.29,17.44,284.3
"2009-04-09 00:26:30",783746,4.944,322.3,1.087,0.119,15.94,106.7655,16.59,17.67,13.68,0,110.5,13.29,17.40,284.3
"2009-04-09 00:27:00",783747,4.954,322.7,1.124,0.061,15.93,106.759,16.58,17.68,13.6,0,110.5,13.29,17.39,284.7
"2009-04-09 00:27:30",783748,5.256,323.8,1.282,0.13,15.97,106.759,16.58,17.67,13.49,0,110.5,13.29,17.39,285.8
"2009-04-09 00:28:00",783749,5.238,323.3,1.186,0.175,16,106.759,16.58,17.66,13.46,0,110.5,13.29,17.39,285.3
"2009-04-09 00:28:30",783750,4.917,324.9,1.118,0.12,16.01,106.759,16.58,17.64,13.44,0,110.5,13.29,17.39,286.9
"2009-04-09 00:29:00",783751,4.849,326.8,1.425,0.087,15.96,106.7599,16.58,17.64,13.26,0,110.5,13.29,17.39,288.8
"2009-04-09 00:29:30",783752,4.78,325.3,1.411,0.128,16.06,106.756,16.57,17.63,13.13,0,110.5,13.29,17.38,287.3
"2009-04-09 00:30:00",783753,5.101,324.1,1.176,0.079,15.93,106.7473,16.55,17.62,13.19,0,110.5,13.29,17.36,286.1
"2009-04-09 00:30:30",783754,5.058,322,1.222,0.127,15.98,106.7302,16.5,17.61,13.27,0,110.5,13.29,17.31,284.0
"2009-04-09 00:31:00",783755,5.135,318.7,2.93,0.112,15.97,106.7312,16.51,17.6,13.32,0,110.5,13.3,17.32,280.7
"2009-04-09 00:31:30",783756,5.137,317.5,1.208,0.074,16.03,106.7346,16.51,17.6,13.32,0,110.5,13.3,17.32,279.5
"2009-04-09 00:32:00",783757,5.386,318.8,2.235,0.148,15.96,106.734,16.51,17.58,13.4,0,110.5,13.3,17.32,280.8
"2009-04-09 00:32:30",783758,5.569,319.8,1.901,0.086,16.01,106.7349,16.52,17.58,13.47,0,110.5,13.3,17.33,281.8
"2009-04-09 00:33:00",783759,5.274,313,1.657,0.132,16.06,106.7376,16.52,17.57,13.27,0,110.5,13.3,17.33,275.0
"2009-04-09 00:33:30",783760,4.844,316.9,2.882,0.115,16,106.7386,16.53,17.57,13.03,0,110.5,13.3,17.33,278.9
"2009-04-09 00:34:00",783761,5.005,318.4,1.655,0.155,15.98,106.7359,16.52,17.55,13.13,0,110.5,13.3,17.33,280.4
"2009-04-09 00:34:30",783762,4.972,320.3,1.722,0.152,16.03,106.7271,16.5,17.55,13.47,0,110.5,13.3,17.31,282.3
"2009-04-09 00:35:00",783763,4.719,319.1,1.75,0.183,15.9,106.7185,16.47,17.54,13.48,0,110.5,13.3,17.28,281.1
"2009-04-09 00:35:30",783764,5.13,318.3,0.986,0.131,16.01,106.7134,16.46,17.53,13.52,0,110.5,13.3,17.27,280.3
"2009-04-09 00:36:00",783765,4.965,321,1.303,0.075,15.96,106.7161,16.47,17.51,13.58,0,110.5,13.3,17.28,283.0
"2009-04-09 00:36:30",783766,5.155,324.4,1.822,0.261,15.81,106.7164,16.47,17.5,13.91,0,110.5,13.3,17.28,286.4
"2009-04-09 00:37:00",783767,6.137,326.8,0.767,0.1,15.84,106.7188,16.47,17.5,14.46,0,110.5,13.3,17.28,288.8
"2009-04-09 00:37:30",783768,6.252,325.3,0.901,0.152,15.87,106.7197,16.48,17.51,15,0,110.5,13.31,17.29,287.3
"2009-04-09 00:38:00",783769,6.474,325.9,2.157,0.111,15.7,106.7209,16.48,17.49,15.19,0,110.5,13.3,17.29,287.9
"2009-04-09 00:38:30",783770,6.824,329.3,1.206,0.254,15.73,106.7227,16.48,17.49,15.35,0,110.5,13.31,17.29,291.3
"2009-04-09 00:39:00",783771,6.84,328.9,0.803,0.093,15.71,106.7254,16.49,17.49,15.48,0,110.5,13.31,17.30,290.9
"2009-04-09 00:39:30",783772,7.024,325.6,1.006,0.129,15.62,106.7169,16.47,17.48,15.74,0,110.5,13.31,17.28,287.6
"2009-04-09 00:40:00",783773,7.136,328.4,1.637,0.179,15.76,106.7029,16.43,17.46,15.82,0,110.5,13.3,17.24,290.4
"2009-04-09 00:40:30",783774,7.138,328.7,1.396,0.14,15.81,106.6939,16.41,17.46,15.69,0,110.5,13.31,17.22,290.7
"2009-04-09 00:41:00",783775,6.48,326.7,1.218,0.315,15.85,106.6937,16.41,17.45,15.61,0,110.5,13.31,17.22,288.7
"2009-04-09 00:41:30",783776,6.223,328.4,2.198,0.26,15.92,106.6931,16.41,17.45,15.5,0,110.5,13.31,17.22,290.4
"2009-04-09 00:42:00",783777,6.081,327.8,1.972,0.273,15.95,106.6937,16.41,17.43,15.27,0,110.5,13.31,17.22,289.8
"2009-04-09 00:42:30",783778,6.072,328.3,2.904,0.253,15.86,106.6881,16.4,17.41,15.33,0,110.5,13.3,17.21,290.3
"2009-04-09 00:43:00",783779,5.775,332.4,1.984,0.277,15.86,106.6793,16.37,17.4,15.31,0,110.5,13.3,17.18,294.4
"2009-04-09 00:43:30",783780,5.973,330.6,1.243,0.17,16.08,106.6613,16.33,17.39,15.09,0,110.5,13.3,17.14,292.6
"2009-04-09 00:44:00",783781,5.782,333.3,1.414,0.174,15.96,106.6599,16.32,17.38,14.97,0,110.5,13.3,17.13,295.3
"2009-04-09 00:44:30",783782,6.085,330.4,1.425,0.184,15.81,106.6599,16.32,17.36,15.34,0,110.5,13.3,17.13,292.4
"2009-04-09 00:45:00",783783,5.798,324.1,2.168,0.276,15.89,106.6599,16.32,17.35,15.33,0,110.5,13.3,17.13,286.1
"2009-04-09 00:45:30",783784,5.84,323,1.536,0.19,16,106.6593,16.32,17.34,15.1,0,110.5,13.3,17.13,285.0
"2009-04-09 00:46:00",783785,5.23,323.5,3.85,0.264,16.02,106.656,16.31,17.33,14.59,0,110.5,13.3,17.12,285.5
"2009-04-09 00:46:30",783786,5.623,329.9,3.38,0.242,15.89,106.6416,16.28,17.32,14.91,0,110.5,13.3,17.09,291.9
"2009-04-09 00:47:00",783787,5.912,331.4,2.582,0.249,15.87,106.6303,16.25,17.31,15.41,0,110.5,13.3,17.06,293.4
"2009-04-09 00:47:30",783788,5.734,329.7,2.625,0.204,15.94,106.6261,16.24,17.31,15.33,0,110.5,13.3,17.05,291.7
"2009-04-09 00:48:00",783789,5.221,325.3,3.725,0.41,15.92,106.6261,16.24,17.29,15.22,0,110.5,13.31,17.05,287.3
"2009-04-09 00:48:30",783790,5.017,321.6,3.029,0.197,16.03,106.6261,16.24,17.28,14.96,0,110.5,13.31,17.05,283.6
"2009-04-09 00:49:00",783791,5.699,315.4,1.843,0.299,16.16,106.6261,16.24,17.28,14.4,0,110.5,13.31,17.05,277.4
"2009-04-09 00:49:30",783792,4.869,315.6,2.452,0.229,16.06,106.6261,16.24,17.27,14.16,0,110.5,13.31,17.05,277.6
"2009-04-09 00:50:00",783793,4.529,316.5,2.555,0.245,16.09,106.6261,16.24,17.26,14.26,0,110.5,13.31,17.05,278.5
"2009-04-09 00:50:30",783794,4.784,322.2,3.85,0.221,15.98,106.6261,16.24,17.27,14.25,0,110.5,13.32,17.05,284.2
"2009-04-09 00:51:00",783795,4.876,333.7,2.335,0.206,15.79,106.623,16.23,17.26,14.78,0,110.5,13.32,17.04,295.7
"2009-04-09 00:51:30",783796,5.825,334.8,1.93,0.237,15.79,106.6193,16.22,17.24,15.44,0,110.5,13.31,17.03,296.8
"2009-04-09 00:52:00",783797,5.903,336,1.938,0.104,15.75,106.6131,16.2,17.23,15.74,0,110.5,13.31,17.01,298.0
"2009-04-09 00:52:30",783798,6.001,336.6,1.033,0.073,15.73,106.6148,16.21,17.23,15.96,0,110.5,13.31,17.02,298.6
"2009-04-09 00:53:00",783799,6.026,338,0.718,0.043,15.67,106.6083,16.19,17.23,15.99,0,110.5,13.32,17.00,300.0
"2009-04-09 00:53:30",783800,6.01,337.5,1.72,0.085,15.82,106.596,16.16,17.23,15.88,0,110.5,13.32,16.97,299.5
"2009-04-09 00:54:00",783801,5.858,335.5,0.996,0.107,15.94,106.5926,16.15,17.21,15.8,0,110.5,13.32,16.96,297.5
"2009-04-09 00:54:30",783802,6.311,333.6,1.903,0.273,15.77,106.5923,16.15,17.22,15.9,0,110.5,13.32,16.96,295.6
"2009-04-09 00:55:00",783803,6.755,331.1,1.235,0.108,15.68,106.5923,16.15,17.21,16.13,0,110.5,13.32,16.96,293.1
"2009-04-09 00:55:30",783804,7.177,326.5,2.768,0.265,15.65,106.5923,16.15,17.2,16.17,0,110.5,13.32,16.96,288.5
"2009-04-09 00:56:00",783805,6.933,323.2,1.557,0.238,15.59,106.5923,16.15,17.2,15.99,0,110.5,13.32,16.96,285.2
"2009-04-09 00:56:30",783806,6.933,328,2.199,0.292,15.86,106.5923,16.15,17.19,15.82,0,110.5,13.32,16.96,290.0
"2009-04-09 00:57:00",783807,6.987,325,5.898,0.385,15.83,106.5914,16.15,17.19,15.55,0,110.5,13.32,16.96,287.0
"2009-04-09 00:57:30",783808,6.157,318.5,2.701,0.185,15.84,106.5805,16.12,17.17,15.52,0,110.5,13.32,16.93,280.5
"2009-04-09 00:58:00",783809,6.395,322.2,3.208,0.294,15.97,106.5658,16.08,17.16,15.28,0,110.5,13.32,16.89,284.2
"2009-04-09 00:58:30",783810,6.224,326.1,1.282,0.141,16,106.5596,16.07,17.16,14.92,0,110.5,13.32,16.87,288.1
"2009-04-09 00:59:00",783811,6.966,332.1,2.653,0.402,15.76,106.5585,16.06,17.15,15,0,110.5,13.32,16.87,294.1
"2009-04-09 00:59:30",783812,7.774,330.6,1.318,0.148,15.52,106.5585,16.06,17.14,15.69,0,110.5,13.31,16.87,292.6
"2009-04-09 01:00:00",783813,7.775,329.5,1.115,0.161,15.65,106.5585,16.06,17.12,15.92,0,110.5,13.31,16.87,291.5
"2009-04-09 01:00:30",783814,7.925,327.7,1.741,0.11,15.73,106.5585,16.06,17.13,15.77,0,110.5,13.31,16.87,289.7
"2009-04-09 01:01:00",783815,7.479,324.2,0.918,0.124,15.67,106.5585,16.06,17.1,15.85,0,110.5,13.31,16.87,286.2
"2009-04-09 01:01:30",783816,7.71,323.5,1.255,0.202,15.6,106.5576,16.06,17.11,16.12,0,110.5,13.31,16.87,285.5
"2009-04-09 01:02:00",783817,7.758,324.1,0.363,0.125,15.57,106.552,16.05,17.09,16.32,0,110.5,13.31,16.86,286.1
"2009-04-09 01:02:30",783818,8.02,323.6,0.996,0.123,15.76,106.5419,16.02,17.09,16.23,0,110.5,13.31,16.83,285.6
"2009-04-09 01:03:00",783819,8.28,324.7,1.633,0.362,15.73,106.5269,15.98,17.09,16.05,0,110.5,13.31,16.79,286.7
"2009-04-09 01:03:30",783820,8.63,327.8,1.134,0.117,15.68,106.5247,15.98,17.07,16.08,0,110.5,13.31,16.78,289.8
"2009-04-09 01:04:00",783821,8.27,328.5,0.738,0.082,15.54,106.5247,15.98,17.05,16.21,0,110.5,13.32,16.78,290.5
"2009-04-09 01:04:30",783822,8.1,328.6,0.85,0.132,15.57,106.5247,15.98,17.05,16.17,0,110.5,13.32,16.78,290.6
"2009-04-09 01:05:00",783823,7.765,326.2,1.672,0.105,15.71,106.5199,15.96,17.03,15.97,0,110.5,13.32,16.77,288.2
"2009-04-09 01:05:30",783824,8.02,326.7,1.512,0.142,15.7,106.5038,15.92,17.01,15.87,0,110.5,13.32,16.73,288.7
"2009-04-09 01:06:00",783825,7.754,328.6,1.86,0.147,15.7,106.4917,15.89,17,15.96,0,110.5,13.32,16.70,290.6
"2009-04-09 01:06:30",783826,7.811,326.8,0.87,0.14,15.68,106.4909,15.89,16.99,15.98,0,110.5,13.32,16.70,288.8
"2009-04-09 01:07:00",783827,7.9,325.4,1.092,0.12,15.74,106.4912,15.89,16.97,16.06,0,110.5,13.32,16.70,287.4
"2009-04-09 01:07:30",783828,8.03,327.1,1.229,0.138,15.65,106.4912,15.89,16.97,16.18,0,110.5,13.32,16.70,289.1
"2009-04-09 01:08:00",783829,7.834,327.6,0.488,0.133,15.61,106.4883,15.88,16.97,16.3,0,110.5,13.32,16.69,289.6
"2009-04-09 01:08:30",783830,7.817,327.8,0.754,0.061,15.67,106.4802,15.86,16.94,16.27,0,110.5,13.32,16.67,289.8
"2009-04-09 01:09:00",783831,7.467,325.1,1.168,0.131,15.74,106.4605,15.81,16.92,16.09,0,110.5,13.32,16.62,287.1
"2009-04-09 01:09:30",783832,7.461,326,1.509,0.193,15.77,106.4583,15.81,16.92,15.92,0,110.5,13.32,16.61,288.0
"2009-04-09 01:10:00",783833,7.6,327.8,1.775,0.172,15.64,106.4595,15.81,16.9,15.91,0,110.5,13.32,16.62,289.8
"2009-04-09 01:10:30",783834,7.894,328.9,0.896,0.159,15.62,106.4583,15.81,16.9,16.02,0,110.5,13.32,16.61,290.9
"2009-04-09 01:11:00",783835,7.996,329.9,1.243,0.248,15.62,106.4589,15.81,16.87,16.26,0,110.5,13.32,16.62,291.9
"2009-04-09 01:11:30",783836,8.1,329.2,1.555,0.383,15.73,106.4509,15.79,16.86,15.98,0,110.5,13.32,16.60,291.2
"2009-04-09 01:12:00",783837,8.21,330.7,1.11,0.241,15.71,106.4346,15.75,16.86,15.79,0,110.5,13.32,16.55,292.7
"2009-04-09 01:12:30",783838,7.97,331.2,1.712,0.179,15.69,106.4316,15.74,16.85,15.75,0,110.5,13.33,16.55,293.2
"2009-04-09 01:13:00",783839,8.16,333,1.903,0.305,15.7,106.432,15.74,16.83,15.7,0,110.5,13.33,16.55,295.0
"2009-04-09 01:13:30",783840,8.47,332.6,1.213,0.2,15.75,106.4325,15.74,16.83,15.62,0,110.5,13.33,16.55,294.6
"2009-04-09 01:14:00",783841,8.67,333.7,0.758,0.125,15.77,106.4331,15.74,16.79,15.57,0,110.5,13.33,16.55,295.7
"2009-04-09 01:14:30",783842,8.64,333.9,0.926,0.191,15.77,106.4298,15.73,16.79,15.55,0,110.5,13.33,16.54,295.9
"2009-04-09 01:15:00",783843,8.74,333.6,0.366,0.138,15.75,106.4221,15.71,16.79,15.53,0,110.5,13.33,16.52,295.6
"2009-04-09 01:15:30",783844,8.59,334.4,0.597,0.109,15.76,106.4203,15.71,16.76,15.56,0,110.5,13.33,16.52,296.4
"2009-04-09 01:16:00",783845,8.63,334.7,0.786,0.106,15.81,106.4108,15.69,16.76,15.57,0,110.5,13.32,16.49,296.7
"2009-04-09 01:16:30",783846,8.74,333.9,0.631,0.116,15.83,106.4026,15.66,16.75,15.52,0,110.5,13.32,16.47,295.9
"2009-04-09 01:17:00",783847,8.57,332.8,1.784,0.154,15.82,106.4047,15.67,16.75,15.43,0,110.5,13.32,16.48,294.8
"2009-04-09 01:17:30",783848,8.81,333.4,1.058,0.109,15.72,106.4053,15.67,16.73,15.51,0,110.5,13.32,16.48,295.4
"2009-04-09 01:18:00",783849,9.02,330.8,1.047,0.144,15.74,106.4068,15.68,16.73,15.67,0,110.5,13.32,16.48,292.8
"2009-04-09 01:18:30",783850,9.38,330.7,0.53,0.043,15.66,106.4095,15.68,16.72,15.72,0,110.5,13.32,16.49,292.7
"2009-04-09 01:19:00",783851,8.9,330.9,0.831,0.245,15.75,106.4113,15.69,16.72,15.65,0,110.4,13.32,16.49,292.9
"2009-04-09 01:19:30",783852,8.58,333.9,1.528,0.187,15.69,106.4122,15.69,16.71,15.58,0,110.4,13.32,16.50,295.9
"2009-04-09 01:20:00",783853,9.12,335.2,1.079,0.137,15.65,106.4126,15.69,16.7,15.66,0,110.4,13.32,16.50,297.2
"2009-04-09 01:20:30",783854,9.33,334.3,0.755,0.063,15.66,106.4136,15.69,16.71,15.65,0,110.5,13.32,16.50,296.3
"2009-04-09 01:21:00",783855,9.72,333.5,0.381,0.199,15.63,106.4114,15.69,16.7,15.65,0,110.5,13.32,16.49,295.5
"2009-04-09 01:21:30",783856,10.02,331.9,0.953,0.179,15.57,106.4113,15.69,16.7,15.8,0,110.4,13.33,16.49,293.9
"2009-04-09 01:22:00",783857,10.01,331.9,0.786,0.145,15.63,106.4063,15.67,16.68,16.05,0,110.4,13.33,16.48,293.9
"2009-04-09 01:22:30",783858,9.72,332.9,0.756,0.151,15.78,106.3934,15.64,16.69,16,0,110.4,13.33,16.45,294.9
"2009-04-09 01:23:00",783859,9.45,333.6,0.557,0.1,15.77,106.3906,15.63,16.67,15.79,0,110.4,13.33,16.44,295.6
"2009-04-09 01:23:30",783860,9.23,334.8,0.495,0.099,15.78,106.3913,15.64,16.67,15.73,0,110.4,13.33,16.44,296.8
"2009-04-09 01:24:00",783861,9.03,333.8,0.485,0.105,15.78,106.3913,15.64,16.66,15.64,0,110.4,13.33,16.44,295.8
"2009-04-09 01:24:30",783862,8.81,333.5,0.569,0.149,15.81,106.3916,15.64,16.65,15.58,0,110.4,13.33,16.44,295.5
"2009-04-09 01:25:00",783863,9.25,332.1,0.73,0.28,15.74,106.391,15.63,16.64,15.63,0,110.4,13.33,16.44,294.1
"2009-04-09 01:25:30",783864,9.58,331.4,0.451,0.084,15.75,106.3916,15.64,16.64,15.83,0,110.4,13.33,16.44,293.4
"2009-04-09 01:26:00",783865,9.56,330.7,0.858,0.121,15.71,106.3913,15.64,16.65,15.89,0,110.4,13.33,16.44,292.7
"2009-04-09 01:26:30",783866,9.41,327.8,1.342,0.139,15.62,106.3916,15.64,16.63,16.01,0,110.4,13.33,16.44,289.8
"2009-04-09 01:27:00",783867,9.38,329.8,1.329,0.182,15.7,106.3913,15.64,16.62,16.18,0,110.4,13.33,16.44,291.8
"2009-04-09 01:27:30",783868,9.39,329.6,0.664,0.08,15.63,106.3916,15.64,16.63,16.1,0,110.4,13.33,16.44,291.6
"2009-04-09 01:28:00",783869,9.34,328.8,0.537,0.115,15.63,106.3916,15.64,16.61,16.03,0,110.4,13.33,16.44,290.8
"2009-04-09 01:28:30",783870,9.43,328.7,0.573,0.059,15.61,106.3916,15.64,16.62,16.01,0,110.4,13.33,16.44,290.7
"2009-04-09 01:29:00",783871,9.48,326.7,1.359,0.172,15.61,106.391,15.63,16.62,16.19,0,110.4,13.33,16.44,288.7
"2009-04-09 01:29:30",783872,9.47,325.9,0.871,0.22,15.67,106.3908,15.63,16.61,16.29,0,110.4,13.33,16.44,287.9
"2009-04-09 01:30:00",783873,9.17,324.3,0.599,0.079,15.61,106.3871,15.62,16.61,16.24,0,110.4,13.33,16.43,286.3
"2009-04-09 01:30:30",783874,8.9,324.5,0.609,0.075,15.72,106.3848,15.62,16.61,16.22,0,110.4,13.33,16.43,286.5
"2009-04-09 01:31:00",783875,9.15,326.2,1.213,0.144,15.77,106.3823,15.61,16.61,16.12,0,110.4,13.33,16.42,288.2
"2009-04-09 01:31:30",783876,9.33,327.8,0.586,0.091,15.7,106.3753,15.59,16.6,16,0,110.4,13.33,16.40,289.8
"2009-04-09 01:32:00",783877,9.45,327.8,0.917,0.242,15.76,106.3702,15.58,16.6,15.97,0,110.4,13.33,16.39,289.8
"2009-04-09 01:32:30",783878,9.49,329,1.277,0.217,15.77,106.3626,15.56,16.59,15.92,0,110.4,13.33,16.37,291.0
"2009-04-09 01:33:00",783879,9.83,328.6,0.907,0.11,15.78,106.3606,15.56,16.59,15.86,0,110.4,13.33,16.36,290.6
"2009-04-09 01:33:30",783880,9.58,327.1,0.871,0.104,15.76,106.3586,15.55,16.6,15.88,0,110.4,13.33,16.36,289.1
"2009-04-09 01:34:00",783881,9.54,326.4,0.574,0.062,15.69,106.3581,15.55,16.59,16.06,0,110.4,13.33,16.36,288.4
"2009-04-09 01:34:30",783882,9.21,327.1,0.798,0.076,15.81,106.3581,15.55,16.59,16.13,0,110.4,13.33,16.36,289.1
"2009-04-09 01:35:00",783883,9.13,327.4,0.979,0.078,15.8,106.3578,15.55,16.58,16,0,110.4,13.33,16.36,289.4
"2009-04-09 01:35:30",783884,9.34,325.5,0.469,0.067,15.82,106.3578,15.55,16.57,16,0,110.4,13.33,16.36,287.5
"2009-04-09 01:36:00",783885,9.31,325.4,0.658,0.06,15.85,106.3578,15.55,16.58,15.98,0,110.4,13.33,16.36,287.4
"2009-04-09 01:36:30",783886,9.39,324.6,0.742,0.041,15.86,106.3578,15.55,16.58,15.94,0,110.4,13.33,16.36,286.6
"2009-04-09 01:37:00",783887,9.37,322.5,0.555,0.066,15.78,106.3578,15.55,16.59,15.97,0,110.4,13.33,16.36,284.5
"2009-04-09 01:37:30",783888,9.49,322.8,1.161,0.128,15.81,106.3578,15.55,16.58,15.99,0,110.4,13.33,16.36,284.8
"2009-04-09 01:38:00",783889,9.25,319,2.638,0.454,15.26,106.3578,15.55,16.58,16.55,0,110.4,13.33,16.36,281.0
"2009-04-09 01:38:30",783890,9.03,320.6,3.119,0.345,15.47,106.3578,15.55,16.57,16.78,0,110.4,13.33,16.36,282.6
"2009-04-09 01:39:00",783891,9.24,321.4,2.174,0.416,15.6,106.3578,15.55,16.57,16.79,0,110.4,13.33,16.36,283.4
"2009-04-09 01:39:30",783892,9.45,316.3,2.745,0.375,15.52,106.3578,15.55,16.58,16.71,0,110.4,13.33,16.36,278.3
"2009-04-09 01:40:00",783893,8.68,317.6,2.578,0.135,15.63,106.3578,15.55,16.57,16.69,0,110.4,13.33,16.36,279.6
"2009-04-09 01:40:30",783894,8.96,321.7,0.717,0.148,15.81,106.3578,15.55,16.57,16.54,0,110.4,13.33,16.36,283.7
"2009-04-09 01:41:00",783895,9.05,320.4,0.634,0.044,16.02,106.3578,15.55,16.56,16.27,0,110.4,13.34,16.36,282.4
"2009-04-09 01:41:30",783896,9.17,317.1,1.2,0.081,15.81,106.3578,15.55,16.57,16.09,0,110.4,13.34,16.36,279.1
"2009-04-09 01:42:00",783897,8.83,312.8,2.716,0.279,15.62,106.3578,15.55,16.57,16.02,0,110.4,13.34,16.36,274.8
"2009-04-09 01:42:30",783898,7.998,302.5,5.022,0.193,15.5,106.3578,15.55,16.56,16.3,0,110.4,13.34,16.36,264.5
"2009-04-09 01:43:00",783899,8.14,297.4,2.068,0.202,15.8,106.3578,15.55,16.56,16.48,0,110.4,13.34,16.36,259.4
"2009-04-09 01:43:30",783900,7.543,298.3,1.272,0.251,15.78,106.3578,15.55,16.56,16.1,0,110.4,13.34,16.36,260.3
"2009-04-09 01:44:00",783901,7.505,301.7,1.326,0.311,15.78,106.3578,15.55,16.55,15.24,0,110.4,13.34,16.36,263.7
"2009-04-09 01:44:30",783902,7.91,301.4,2.274,0.253,15.77,106.3578,15.55,16.55,14.07,0,110.4,13.34,16.36,263.4
"2009-04-09 01:45:00",783903,8.31,294.9,3.044,0.317,15.72,106.3578,15.55,16.54,14,0,110.4,13.34,16.36,256.9
"2009-04-09 01:45:30",783904,7.722,299.1,3.267,0.443,15.64,106.3578,15.55,16.55,14.15,0,110.4,13.34,16.36,261.1
"2009-04-09 01:46:00",783905,8.13,294.8,5.973,0.439,15.54,106.3578,15.55,16.55,15.16,0,110.4,13.34,16.36,256.8
"2009-04-09 01:46:30",783906,8.22,293.7,3.656,0.485,15.41,106.3578,15.55,16.56,15.79,0,110.4,13.34,16.36,255.7
"2009-04-09 01:47:00",783907,8.08,300.2,5.668,0.649,15.57,106.3578,15.55,16.57,15.88,0,110.4,13.34,16.36,262.2
"2009-04-09 01:47:30",783908,8.61,304.4,2.785,0.582,15.85,106.3578,15.55,16.55,14.68,0,110.4,13.34,16.36,266.4
"2009-04-09 01:48:00",783909,8.41,295,2.638,0.607,15.6,106.3578,15.55,16.55,15.28,0,110.4,13.34,16.36,257.0